Weather History for Louisville, KY

Change the Weather History Date:

Saturday, January 19, 2013

  Actual Average Record
Temperature  
Mean Temperature 49 °F 35 °F  
Max Temperature 57 °F 43 °F 74 °F (1907)
Min Temperature 40 °F 27 °F -22 °F (1994)
Degree Days  
Heating Degree Days 16 30  
Month to date heating degree days 471 570  
Since 1 July heating degree days 1962 2146  
Cooling Degree Days 0 0  
Month to date cooling degree days 0 0  
Year to date cooling degree days 0 0  
Moisture  
Dew Point 26 °F    
Average Humidity 45    
Maximum Humidity 59    
Minimum Humidity 30    
Precipitation  
Precipitation 0.00 in 0.11 in 3.00 in (1988)
Month to date precipitation 3.95 1.99  
Year to date precipitation 3.95 1.99  
Snow  
Snow 0.00 in 0.20 in 4.00 in (1956)
Month to date snowfall 0.5 2.1  
Since 1 July snowfall 3.2 4.9  
Snow Depth 0.00 in    
Sea Level Pressure  
Sea Level Pressure 30.15 in    
Wind  
Wind Speed 15 mph (SSW)    
Max Wind Speed 23 mph    
Max Gust Speed 31 mph    
Visibility 10 miles    
Events      
T = Trace of Precipitation, MM = Missing Value Source: NWS Daily Summary

Daily Weather History Graph

Daily Weather History Graph

Search for Another Location

Airport:

Trip Planner

Search our weather history database for the weather conditions in past years. The results will help you decide how hot, cold, wet, or windy it might be!

Date:

Astronomy

Jan. 19, 2013 Rise Set
Actual Time 7:56 AM EST 5:51 PM EST
Civil Twilight 7:27 AM EST 6:20 PM EST
Nautical Twilight 6:55 AM EST 6:52 PM EST
Astronomical Twilight 6:24 AM EST 7:23 PM EST
Moon 12:16 PM EST 1:31 AM EST
Length of Visible Light 10h 52m
Length of Day
9h 55m
First Quarter, 57% of the Moon is Illuminated
Jan 19
First Quarter
Jan 26
Full
Feb 3
Last Quarter
Feb 10
New
Feb 17
First Quarter

Hourly Weather History & Observations

Time (EST) Temp. Windchill Dew Point Humidity Pressure Visibility Wind Dir Wind Speed Gust Speed Precip Events Conditions
12:56 AM 42.1 °F 35.2 °F 25.0 °F 51% 30.29 in 10.0 mi SSW 12.7 mph 18.4 mph N/A   Clear
1:56 AM 42.1 °F 35.2 °F 25.0 °F 51% 30.28 in 10.0 mi SSW 12.7 mph 18.4 mph N/A   Clear
2:56 AM 42.1 °F 37.1 °F 25.0 °F 51% 30.27 in 10.0 mi South 8.1 mph - N/A   Clear
3:56 AM 43.0 °F 35.7 °F 25.0 °F 49% 30.26 in 10.0 mi SSW 15.0 mph 23.0 mph N/A   Clear
4:56 AM 43.0 °F 36.8 °F 26.1 °F 51% 30.26 in 10.0 mi SW 11.5 mph 19.6 mph N/A   Clear
5:56 AM 42.1 °F 36.1 °F 26.1 °F 53% 30.26 in 10.0 mi SSW 10.4 mph 18.4 mph N/A   Clear
6:56 AM 39.9 °F 35.1 °F 25.0 °F 55% 30.26 in 10.0 mi SW 6.9 mph - N/A   Clear
7:56 AM 39.9 °F 32.1 °F 26.1 °F 58% 30.26 in 10.0 mi SSW 13.8 mph 20.7 mph N/A   Clear
8:56 AM 42.1 °F 34.2 °F 27.0 °F 55% 30.25 in 10.0 mi SSW 16.1 mph - N/A   Clear
9:56 AM 46.0 °F 39.6 °F 26.1 °F 46% 30.25 in 10.0 mi SSW 15.0 mph 20.7 mph N/A   Clear
10:56 AM 48.9 °F - 27.0 °F 43% 30.24 in 10.0 mi SSW 13.8 mph - N/A   Clear
11:56 AM 51.1 °F - 27.0 °F 39% 30.19 in 10.0 mi SSW 19.6 mph 23.0 mph N/A   Clear
12:56 PM 54.0 °F - 28.0 °F 37% 30.14 in 10.0 mi South 18.4 mph 21.9 mph N/A   Clear
1:56 PM 55.0 °F - 27.0 °F 34% 30.10 in 10.0 mi SSW 19.6 mph 28.8 mph N/A   Clear
2:56 PM 55.9 °F - 26.1 °F 32% 30.07 in 10.0 mi SSW 19.6 mph 26.5 mph N/A   Clear
3:56 PM 55.9 °F - 25.0 °F 30% 30.04 in 10.0 mi SSW 16.1 mph 29.9 mph N/A   Clear
4:56 PM 55.0 °F - 27.0 °F 34% 30.03 in 10.0 mi SSW 19.6 mph 26.5 mph N/A   Partly Cloudy
5:56 PM 53.1 °F - 26.1 °F 35% 30.01 in 10.0 mi SSW 16.1 mph 27.6 mph N/A   Partly Cloudy
6:56 PM 53.1 °F - 27.0 °F 37% 30.01 in 10.0 mi SSW 15.0 mph 24.2 mph N/A   Clear
7:56 PM 52.0 °F - 27.0 °F 38% 30.03 in 10.0 mi SW 15.0 mph - N/A   Partly Cloudy
8:56 PM 51.1 °F - 26.1 °F 38% 30.04 in 10.0 mi SW 15.0 mph 21.9 mph N/A   Partly Cloudy
9:56 PM 50.0 °F - 27.0 °F 41% 30.03 in 10.0 mi SW 15.0 mph 24.2 mph N/A   Partly Cloudy
10:56 PM 48.9 °F - 28.0 °F 44% 30.03 in 10.0 mi SW 16.1 mph 23.0 mph N/A   Partly Cloudy
11:56 PM 48.9 °F - 28.9 °F 46% 30.04 in 10.0 mi WSW 17.3 mph 24.2 mph N/A   Partly Cloudy